1486771201.19,45802,10.06,73778.0,-8.65,-10.89,-10.85,0,*5C
1486771202.39,45803,10.06,73776.8,-8.63,-10.85,-10.85,0,*57
1486771203.62,45804,10.06,73778.0,-8.65,-10.89,-10.85,0,*5A
1486771204.85,45805,10.06,73778.3,-8.65,-10.85,-10.85,0,*57
1486771206.08,45806,10.06,73782.3,-8.63,-10.71,-10.85,0,*59
1486771207.3,45807,10.06,73772.3,-8.67,-10.75,-10.85,0,*58
1486771208.51,45808,10.06,73776.3,-8.67,-10.85,-10.89,0,*54
1486771209.72,45809,10.06,73772.3,-8.67,-10.85,-10.85,0,*59
1486771210.94,45810,10.06,73776.0,-8.65,-10.85,-10.85,0,*53
1486771212.17,45811,10.06,73776.5,-8.65,-10.85,-10.85,0,*52
1486771213.4,45812,10.06,73776.3,-8.65,-10.89,-11.01,0,*50
1486771214.64,45813,10.06,73776.3,-8.65,-10.89,-11.01,0,*51
1486771215.87,45814,10.06,73772.5,-8.65,-11.01,-11.11,0,*56
1486771217.09,45815,10.06,73774.3,-8.67,-10.97,-11.15,0,*5F
1486771218.31,45816,10.06,73776.5,-8.67,-10.97,-11.01,0,*59
1486771219.55,45817,10.06,73778.8,-8.65,-11.01,-11.01,0,*54
1486771220.79,45818,10.06,73776.0,-8.65,-11.01,-11.01,0,*5B
1486771222.03,45819,10.06,73776.0,-8.65,-10.97,-11.01,0,*54
1486771223.27,45820,10.06,73770.8,-8.65,-11.01,-11.01,0,*50
1486771224.51,45821,10.06,73774.3,-8.65,-10.97,-10.97,0,*51
1486771225.75,45822,10.06,73776.0,-8.65,-10.97,-10.97,0,*52
1486771226.99,45823,10.06,73776.8,-8.65,-10.97,-11.01,0,*5D
1486771228.21,45824,10.06,73774.0,-8.67,-11.01,-11.01,0,*56
1486771229.45,45825,10.06,73774.8,-8.65,-10.97,-11.11,0,*5A
1486771230.69,45826,10.06,73774.3,-8.65,-10.97,-11.01,0,*58
1486771231.93,45827,10.06,73776.8,-8.65,-11.01,-11.01,0,*57
1486771233.14,45828,10.06,73774.5,-8.63,-10.93,-10.97,0,*5A
1486771234.39,45829,10.06,73774.3,-8.65,-10.97,-10.97,0,*59
1486771235.63,45830,10.06,73776.5,-8.65,-11.01,-11.01,0,*51
1486771236.87,45831,10.06,73774.8,-8.65,-11.01,-11.01,0,*50
1486771238.08,45832,10.06,73778.0,-8.63,-10.97,-11.11,0,*5A
1486771239.32,45833,10.06,73776.5,-8.65,-11.01,-11.15,0,*57
1486771240.55,45834,10.06,73774.3,-8.65,-11.01,-11.11,0,*54
1486771241.79,45835,10.06,73770.8,-8.65,-11.01,-11.11,0,*55
1486771243.03,45836,10.06,73772.5,-8.65,-10.97,-11.11,0,*58
1486771244.26,45837,10.06,73772.5,-8.65,-10.85,-10.93,0,*51
1486771245.49,45838,10.06,73778.0,-8.63,-10.79,-10.85,0,*5C
1486771246.72,45839,10.06,73774.8,-8.65,-10.85,-10.85,0,*58
1486771248.01,45840,10.06,73774.3,-8.65,-10.75,-10.75,0,*56
1486771249.29,45841,10.06,73774.5,-8.65,-10.75,-10.71,0,*53
1486771250.52,45842,10.06,73770.5,-8.65,-10.85,-10.85,0,*54
1486771251.75,45843,10.06,73772.0,-8.63,-10.85,-10.79,0,*50
1486771252.96,45844,10.06,73774.5,-8.63,-10.85,-10.97,0,*57
1486771254.2,45845,10.06,73772.8,-8.65,-10.89,-10.97,0,*5C
1486771255.44,45846,10.06,73776.5,-8.65,-10.97,-11.01,0,*5E
1486771256.68,45847,10.06,73774.5,-8.65,-11.01,-11.15,0,*54
1486771257.91,45848,10.06,73776.5,-8.65,-11.01,-11.15,0,*5B
1486771259.15,45849,10.06,73772.3,-8.65,-11.11,-11.15,0,*5B
1486771260.38,45850,10.06,73776.3,-8.65,-11.01,-11.15,0,*52
1486771261.62,45851,10.06,73778.8,-8.65,-11.01,-11.11,0,*57
1486771262.87,45852,10.06,73776.0,-8.65,-10.97,-10.97,0,*55
1486771264.1,45853,10.0,73770.0,-8.65,-10.85,-10.89,0,*58
1486771265.33,45854,10.06,73778.5,-8.65,-10.85,-10.89,0,*5F
1486771266.56,45855,10.06,73776.5,-8.65,-10.89,-10.89,0,*52
1486771267.8,45856,10.06,73776.5,-8.65,-11.01,-11.11,0,*50
1486771269.04,45857,10.06,73776.3,-8.65,-11.15,-11.15,0,*50
1486771270.27,45858,10.06,73774.0,-8.65,-11.15,-11.15,0,*5F
1486771271.5,45859,10.06,73778.0,-8.65,-11.11,-11.11,0,*5E
1486771272.73,45860,10.06,73776.3,-8.65,-11.15,-11.15,0,*54
1486771273.97,45861,10.06,73782.5,-8.65,-11.11,-11.15,0,*51
1486771275.2,45862,10.06,73776.3,-8.65,-11.15,-11.15,0,*56
1486771276.44,45863,10.06,73780.0,-8.65,-11.01,-11.15,0,*52
1486771277.68,45864,10.06,73776.8,-8.65,-11.01,-11.15,0,*55
1486771278.91,45865,10.06,73772.3,-8.65,-11.01,-11.15,0,*54
1486771280.15,45866,10.06,73778.5,-8.65,-11.01,-11.15,0,*57
1486771281.39,45867,10.06,73776.3,-8.65,-11.01,-11.15,0,*56
1486771282.63,45868,10.06,73776.8,-8.65,-11.01,-11.15,0,*59
1486771283.86,45869,10.06,73778.8,-8.65,-11.11,-11.15,0,*59
1486771285.09,45870,10.06,73776.3,-8.65,-11.11,-11.23,0,*54
1486771286.33,45871,10.06,73774.5,-8.65,-11.15,-11.23,0,*51
1486771287.59,45872,10.06,73772.8,-8.65,-11.15,-11.29,0,*58
1486771288.82,45873,10.06,73776.0,-8.67,-11.15,-11.29,0,*5B
1486771290.05,45874,10.06,73774.5,-8.67,-11.23,-11.33,0,*52
1486771291.28,45875,10.06,73776.3,-8.67,-11.23,-11.33,0,*53
1486771292.52,45876,10.06,73776.0,-8.67,-11.23,-11.29,0,*5B
1486771293.78,45877,10.06,73774.0,-8.65,-11.23,-11.33,0,*53
1486771295.02,45878,10.06,73778.0,-8.65,-11.23,-11.41,0,*59
1486771296.25,45879,10.06,73778.3,-8.67,-11.23,-11.33,0,*5F
1486771297.46,45880,10.06,73774.3,-8.67,-11.15,-11.23,0,*5D
1486771298.66,45881,10.06,73774.0,-8.67,-11.15,-11.23,0,*5C
1486771299.9,45882,10.06,73772.5,-8.67,-11.15,-11.29,0,*55
1486771301.16,45883,10.06,73770.0,-8.65,-11.15,-11.29,0,*56
1486771302.37,45884,10.06,73774.3,-8.67,-11.15,-11.23,0,*59
1486771303.6,45885,10.06,73774.5,-8.65,-11.11,-11.23,0,*5E
1486771304.81,45886,10.06,73770.5,-8.67,-11.11,-11.23,0,*5F
1486771306.02,45887,10.06,73776.5,-8.67,-11.15,-11.23,0,*5A
1486771307.23,45888,10.06,73774.8,-8.67,-11.15,-11.23,0,*55
1486771308.49,45889,10.06,73778.3,-8.69,-11.15,-11.29,0,*50
1486771309.73,45890,10.06,73776.0,-8.67,-11.15,-11.29,0,*56
1486771310.96,45891,10.06,73772.3,-8.67,-11.11,-11.29,0,*53
1486771312.21,45892,10.06,73774.8,-8.69,-11.19,-11.33,0,*5D
1486771313.45,45893,10.06,73774.5,-8.67,-11.15,-11.29,0,*55
1486771314.7,45894,10.06,73774.5,-8.69,-11.19,-11.33,0,*5B
1486771315.94,45895,10.06,73774.5,-8.67,-11.23,-11.29,0,*56
1486771317.22,45896,10.06,73776.8,-8.69,-11.33,-11.33,0,*51
1486771318.46,45897,10.06,73774.5,-8.67,-11.23,-11.29,0,*54
1486771319.71,45898,10.06,73774.8,-8.69,-11.19,-11.33,0,*57
1486771320.92,45899,10.06,73776.3,-8.67,-11.15,-11.23,0,*55
1486771322.15,45900,10.06,73772.5,-8.67,-11.15,-11.33,0,*55
1486771323.44,45901,10.06,73774.0,-8.69,-11.29,-11.51,0,*51
1486771324.68,45902,10.06,73778.8,-8.67,-11.29,-11.41,0,*5D
1486771325.93,45903,10.06,73774.0,-8.67,-11.29,-11.41,0,*5C
1486771327.19,45904,10.06,73774.5,-8.67,-11.29,-11.33,0,*5E
1486771328.47,45905,10.06,73776.8,-8.69,-11.29,-11.33,0,*51
1486771329.71,45906,10.06,73782.3,-8.67,-11.33,-11.45,0,*56
1486771330.92,45907,10.06,73776.5,-8.67,-11.41,-11.45,0,*52
1486771332.16,45908,10.06,73772.0,-8.67,-11.33,-11.45,0,*58
1486771333.39,45909,10.06,73776.0,-8.67,-11.23,-11.33,0,*59
1486771334.63,45910,10.06,73774.3,-8.67,-11.15,-11.29,0,*5F
1486771335.86,45911,10.06,73774.3,-8.69,-11.15,-11.19,0,*53
1486771337.1,45912,10.06,73774.3,-8.69,-11.01,-11.15,0,*59
1486771338.34,45913,10.06,73778.0,-8.69,-11.01,-11.15,0,*58
1486771339.55,45914,10.06,73776.0,-8.67,-11.11,-11.15,0,*50
1486771340.85,45915,10.06,73774.3,-8.69,-11.29,-11.29,0,*5B
1486771342.06,45916,10.06,73778.5,-8.67,-11.23,-11.23,0,*56
1486771343.26,45917,10.06,73772.8,-8.67,-11.11,-11.23,0,*56
1486771344.53,45918,10.06,73770.8,-8.69,-11.07,-11.19,0,*59
1486771345.79,45919,10.06,73770.5,-8.69,-11.07,-11.19,0,*58
1486771347.0,45920,10.06,73774.0,-8.67,-11.19,-11.19,0,*53
1486771348.23,45921,10.06,73774.3,-8.67,-11.15,-11.29,0,*5D
1486771349.44,45922,10.06,73778.3,-8.67,-11.15,-11.23,0,*54
1486771350.68,45923,10.06,73776.8,-8.67,-11.15,-11.29,0,*5F
1486771351.93,45924,10.06,73776.5,-8.69,-11.19,-11.33,0,*51
1486771353.14,45925,10.06,73772.8,-8.67,-11.15,-11.15,0,*56
1486771354.37,45926,10.06,73778.0,-8.69,-11.15,-11.19,0,*57
1486771355.58,45927,10.06,73776.8,-8.67,-11.11,-11.15,0,*50
1486771356.85,45928,10.06,73780.8,-8.69,-11.07,-11.15,0,*56
1486771358.06,45929,10.06,73782.3,-8.67,-11.01,-11.11,0,*5B
1486771359.33,45930,10.06,73776.3,-8.69,-11.07,-11.15,0,*5F
1486771360.54,45931,10.06,73776.5,-8.67,-11.01,-11.01,0,*53
1486771361.78,45932,10.06,73776.8,-8.69,-11.01,-11.01,0,*5E
1486771363.03,45933,10.06,73778.5,-8.69,-11.01,-10.93,0,*55
1486771364.24,45934,10.06,73776.0,-8.67,-10.89,-10.97,0,*59
1486771365.48,45935,10.06,73774.5,-8.69,-11.01,-11.01,0,*59
1486771366.78,45936,10.06,73780.3,-8.69,-11.07,-11.07,0,*5A
1486771368.04,45937,10.06,73776.5,-8.69,-11.07,-11.01,0,*5D
1486771369.31,45938,10.06,73772.3,-8.69,-11.07,-11.15,0,*57
1486771370.52,45939,10.06,73782.0,-8.67,-11.11,-11.11,0,*5B
1486771371.78,45940,10.06,73780.0,-8.69,-11.07,-11.15,0,*58
1486771372.99,45941,10.06,73776.8,-8.67,-10.89,-11.01,0,*55
1486771374.26,45942,10.06,73774.5,-8.69,-11.07,-11.15,0,*5A
1486771375.5,45943,10.06,73778.8,-8.67,-11.07,-10.97,0,*5E
1486771376.79,45944,10.06,73776.3,-8.69,-11.07,-11.07,0,*5F
1486771378.06,45945,10.06,73778.0,-8.69,-11.01,-11.07,0,*58
1486771379.31,45946,10.06,73780.5,-8.69,-10.93,-11.01,0,*57
1486771380.55,45947,10.06,73776.8,-8.69,-10.93,-11.01,0,*56
1486771381.78,45948,10.06,73776.8,-8.69,-10.89,-10.93,0,*58
1486771382.99,45949,10.06,73778.0,-8.67,-10.89,-10.89,0,*5C
1486771384.2,45950,10.06,73780.5,-8.67,-10.85,-10.89,0,*58
1486771385.47,45951,10.06,73780.8,-8.69,-11.01,-11.07,0,*5D
1486771386.69,45952,10.06,73776.0,-8.67,-10.97,-11.01,0,*58
1486771387.9,45953,10.06,73780.5,-8.67,-11.01,-11.15,0,*52
1486771389.14,45954,10.06,73776.5,-8.69,-11.15,-11.19,0,*52
1486771390.35,45955,10.06,73778.5,-8.67,-11.15,-11.15,0,*51
1486771391.58,45956,10.06,73780.3,-8.69,-11.19,-11.19,0,*5C
1486771392.81,45957,10.06,73776.5,-8.69,-11.19,-11.19,0,*5D
1486771394.02,45958,10.06,73774.8,-8.67,-11.15,-11.23,0,*59
1486771395.23,45959,10.06,73778.3,-8.67,-11.11,-11.23,0,*5C
1486771396.44,45960,10.06,73772.8,-8.67,-11.15,-11.23,0,*52
1486771397.66,45961,10.06,73776.8,-8.67,-11.15,-11.33,0,*52
1486771398.88,45962,10.06,73772.8,-8.67,-11.23,-11.41,0,*51
1486771400.16,45963,10.06,73778.0,-8.69,-11.33,-11.37,0,*5E
1486771401.42,45964,10.06,73778.5,-8.67,-11.29,-11.33,0,*58
1486771402.68,45965,10.06,73774.8,-8.67,-11.33,-11.33,0,*52
1486771403.96,45966,10.06,73776.5,-8.69,-11.33,-11.33,0,*5F
1486771405.17,45967,10.06,73776.5,-8.67,-11.23,-11.23,0,*50
1486771406.47,45968,10.06,73778.0,-8.69,-11.29,-11.29,0,*51
1486771407.73,45969,10.06,73770.3,-8.69,-11.19,-11.29,0,*53
1486771408.99,45970,10.06,73774.3,-8.69,-11.15,-11.29,0,*57
1486771410.22,45971,10.06,73772.5,-8.69,-11.15,-11.19,0,*55
1486771411.43,45972,10.06,73774.0,-8.67,-11.15,-11.15,0,*54
1486771412.64,45973,10.06,73770.8,-8.67,-11.15,-11.15,0,*55
1486771413.9,45974,10.06,73770.0,-8.69,-11.15,-11.29,0,*53
1486771415.11,45975,10.06,73770.5,-8.67,-11.11,-11.23,0,*52
1486771416.35,45976,10.06,73776.5,-8.67,-11.19,-11.29,0,*53
1486771417.6,45977,10.06,73772.5,-8.69,-11.19,-11.37,0,*53
1486771418.81,45978,10.06,73772.5,-8.67,-11.11,-11.23,0,*5F
1486771420.05,45979,10.06,73772.5,-8.67,-11.11,-11.29,0,*54
1486771421.28,45980,10.06,73772.3,-8.67,-11.15,-11.29,0,*56
1486771422.49,45981,10.06,73772.3,-8.67,-11.15,-11.23,0,*5D
1486771423.74,45982,10.06,73774.0,-8.69,-11.19,-11.33,0,*5D
1486771424.97,45983,10.06,73770.8,-8.67,-11.19,-11.37,0,*56
1486771426.2,45984,10.06,73774.0,-8.67,-11.15,-11.37,0,*5D
1486771427.44,45985,10.06,73772.3,-8.67,-11.15,-11.29,0,*53
1486771428.7,45986,10.06,73772.8,-8.69,-11.19,-11.29,0,*52
1486771429.95,45987,10.06,73774.0,-8.69,-11.19,-11.33,0,*58
1486771431.24,45988,10.06,73772.0,-8.69,-11.29,-11.37,0,*50
1486771432.48,45989,10.06,73774.5,-8.67,-11.29,-11.41,0,*5E
1486771433.75,45990,10.06,73776.3,-8.67,-11.29,-11.55,0,*53
1486771435.03,45991,10.06,73772.3,-8.69,-11.37,-11.59,0,*5F
1486771436.27,45992,10.06,73770.5,-8.67,-11.33,-11.45,0,*5B
1486771437.51,45993,10.06,73774.3,-8.67,-11.33,-11.45,0,*5A
1486771438.79,45994,10.06,73770.0,-8.69,-11.37,-11.59,0,*5A
1486771440.05,45995,10.06,73774.5,-8.67,-11.33,-11.55,0,*5D
1486771441.35,45996,10.06,73774.5,-8.69,-11.51,-11.63,0,*51
1486771442.59,45997,10.06,73774.0,-8.67,-11.45,-11.67,0,*5F
1486771443.85,45998,10.06,73772.5,-8.67,-11.55,-11.67,0,*51
1486771445.09,45999,10.06,73772.0,-8.67,-11.45,-11.59,0,*5C
1486771446.33,46000,10.06,73774.3,-8.67,-11.45,-11.59,0,*56
1486771447.58,46001,10.06,73774.8,-8.67,-11.45,-11.59,0,*57
1486771448.82,46002,10.06,73774.0,-8.67,-11.45,-11.67,0,*59
1486771450.1,46003,10.06,73774.3,-8.69,-11.51,-11.73,0,*56
1486771451.4,46004,10.06,73772.8,-8.69,-11.51,-11.63,0,*50
1486771452.67,46005,10.06,73776.0,-8.69,-11.45,-11.63,0,*54
1486771453.96,46006,10.06,73776.0,-8.69,-11.37,-11.59,0,*5B
1486771455.22,46007,10.06,73776.5,-8.69,-11.45,-11.59,0,*5F
1486771456.51,46008,10.06,73772.8,-8.69,-11.59,-11.73,0,*55
1486771457.8,46009,10.06,73774.3,-8.69,-11.51,-11.73,0,*5C
1486771459.09,46010,10.06,73776.0,-8.69,-11.59,-11.85,0,*55
1486771460.34,46011,10.06,73772.5,-8.67,-11.59,-11.81,0,*5E
1486771461.63,46012,10.06,73774.8,-8.69,-11.59,-11.85,0,*57
1486771462.92,46013,10.06,73776.0,-8.69,-11.59,-11.77,0,*5B
1486771464.21,46014,10.06,73774.0,-8.69,-11.59,-11.73,0,*58
1486771465.49,46015,10.06,73772.3,-8.69,-11.51,-11.77,0,*55
1486771466.79,46016,10.06,73772.0,-8.69,-11.59,-11.63,0,*5B
1486771468.06,46017,10.06,73774.8,-8.69,-11.45,-11.63,0,*57
1486771469.35,46018,10.06,73772.5,-8.69,-11.51,-11.63,0,*5D
1486771470.64,46019,10.06,73772.3,-8.69,-11.51,-11.73,0,*5D
1486771471.92,46020,10.06,73772.0,-8.69,-11.59,-11.73,0,*5F
1486771473.21,46021,10.06,73776.3,-8.69,-11.59,-11.85,0,*57
1486771474.5,46022,10.06,73778.8,-8.69,-11.73,-11.97,0,*5F
1486771475.79,46023,10.06,73774.3,-8.69,-11.63,-11.85,0,*5C
1486771477.07,46024,10.06,73774.3,-8.69,-11.63,-11.77,0,*56
1486771478.36,46025,10.06,73772.3,-8.69,-11.77,-11.89,0,*53
1486771479.63,46026,10.06,73778.3,-8.69,-11.85,-12.03,0,*5C
1486771480.91,46027,10.06,73778.3,-8.73,-11.55,-11.81,0,*52
1486771482.2,46028,10.06,73778.0,-8.69,-11.59,-11.73,0,*57
1486771483.49,46029,10.06,73774.3,-8.69,-11.59,-11.85,0,*5F
1486771484.76,46030,10.06,73778.8,-8.69,-11.45,-11.63,0,*52
1486771486.05,46031,10.06,73776.5,-8.69,-11.73,-11.97,0,*5D
1486771487.34,46032,10.06,73770.5,-8.69,-11.77,-11.97,0,*5A
1486771488.62,46033,10.06,73774.5,-8.69,-11.73,-11.97,0,*5F
1486771489.91,46034,10.06,73770.8,-8.69,-11.63,-11.85,0,*5A
1486771491.19,46035,10.06,73772.5,-8.69,-11.73,-11.85,0,*5A
1486771492.48,46036,10.06,73772.8,-8.69,-11.77,-11.89,0,*51
1486771493.77,46037,10.06,73776.0,-8.69,-11.73,-11.97,0,*5B
1486771495.05,46038,10.06,73774.8,-8.69,-11.85,-11.97,0,*5D
1486771496.32,46039,10.06,73772.8,-8.69,-11.89,-12.03,0,*5E
1486771497.58,46040,10.06,73772.8,-8.69,-11.77,-12.03,0,*51
1486771498.87,46041,10.06,73778.0,-8.69,-11.77,-11.89,0,*51
1486771500.16,46042,10.06,73772.5,-8.69,-11.85,-11.97,0,*50
1486771501.42,46043,10.06,73772.8,-8.71,-11.89,-12.11,0,*59
1486771502.66,46044,10.06,73778.0,-8.71,-11.85,-12.03,0,*51
1486771503.92,46045,10.06,73776.3,-8.71,-11.85,-12.11,0,*53
1486771505.18,46046,10.06,73774.3,-8.71,-11.85,-12.11,0,*50
1486771506.42,46047,10.06,73774.5,-8.71,-11.85,-12.03,0,*52
1486771507.65,46048,10.06,73772.3,-8.71,-11.77,-12.03,0,*50
1486771508.91,46049,10.06,73770.3,-8.71,-11.85,-12.11,0,*5F
1486771510.15,46050,10.06,73768.8,-8.71,-11.89,-12.03,0,*58
1486771511.41,46051,10.06,73774.8,-8.71,-11.73,-11.97,0,*52
1486771512.67,46052,10.06,73772.5,-8.73,-11.81,-12.03,0,*50
1486771513.93,46053,10.06,73778.0,-8.71,-11.77,-11.89,0,*5B
1486771515.2,46054,10.06,73778.8,-8.71,-11.63,-11.89,0,*59
1486771516.46,46055,10.06,73772.5,-8.73,-11.89,-12.03,0,*5F
1486771517.73,46056,10.06,73776.3,-8.71,-11.89,-12.11,0,*5D
1486771518.96,46057,10.06,73780.3,-8.71,-11.85,-12.03,0,*53
1486771520.2,46058,10.06,73776.0,-8.71,-11.85,-12.03,0,*5C
1486771521.44,46059,10.06,73776.8,-8.71,-11.77,-12.03,0,*50
1486771522.73,46060,10.06,73778.0,-8.73,-11.93,-12.07,0,*56
1486771523.99,46061,10.06,73780.0,-8.71,-11.73,-11.97,0,*51
1486771525.25,46062,10.06,73780.8,-8.71,-11.73,-11.89,0,*5D
1486771526.51,46063,10.06,73774.3,-8.73,-11.81,-12.03,0,*52
1486771527.77,46064,10.06,73778.3,-8.73,-11.77,-12.03,0,*5C
1486771529.04,46065,10.06,73776.5,-8.71,-11.63,-11.89,0,*5B
1486771530.3,46066,10.06,73780.5,-8.71,-11.73,-11.97,0,*56
1486771531.56,46067,10.06,73776.5,-8.71,-11.73,-11.89,0,*58
1486771532.85,46068,10.06,73780.8,-8.73,-11.77,-11.93,0,*5A
1486771534.1,46069,10.06,73776.8,-8.71,-11.81,-11.97,0,*54
1486771535.4,46070,10.06,73780.5,-8.73,-11.67,-11.93,0,*52
1486771536.66,46071,10.06,73780.5,-8.71,-11.63,-11.89,0,*5E
1486771537.92,46072,10.06,73778.3,-8.71,-11.59,-11.77,0,*55
1486771539.18,46073,10.06,73776.5,-8.71,-11.51,-11.73,0,*58
1486771540.44,46074,10.06,73778.5,-8.71,-11.63,-11.81,0,*53
1486771541.7,46075,10.06,73778.3,-8.71,-11.59,-11.77,0,*52
1486771542.96,46076,10.06,73778.8,-8.71,-11.59,-11.85,0,*5C
1486771544.25,46077,10.06,73776.8,-8.73,-11.67,-11.89,0,*5E
1486771545.52,46078,10.06,73772.0,-8.71,-11.59,-11.89,0,*5E
1486771546.81,46079,10.06,73778.3,-8.73,-11.77,-11.89,0,*51
1486771548.07,46080,10.06,73778.5,-8.71,-11.63,-11.89,0,*50
1486771549.36,46081,10.06,73778.5,-8.73,-11.77,-11.93,0,*5D
1486771550.63,46082,10.06,73774.3,-8.73,-11.67,-12.03,0,*55
1486771551.89,46083,10.06,73776.3,-8.71,-11.73,-11.89,0,*52
1486771553.15,46084,10.06,73774.8,-8.71,-11.63,-11.81,0,*5C
1486771554.44,46085,10.06,73778.8,-8.73,-11.63,-11.89,0,*57
1486771555.73,46086,10.06,73778.5,-8.73,-11.77,-11.89,0,*51
1486771557.0,46087,10.06,73772.0,-8.71,-11.63,-11.89,0,*57
1486771558.29,46088,10.06,73774.5,-8.73,-11.67,-11.93,0,*55
1486771559.58,46089,10.06,73776.3,-8.73,-11.67,-11.89,0,*5F
1486771560.87,46090,10.06,73772.5,-8.73,-11.77,-11.93,0,*5D
1486771562.17,46091,10.06,73772.8,-8.73,-11.67,-11.93,0,*5D
1486771563.43,46092,10.06,73774.5,-8.71,-11.63,-11.89,0,*53
1486771564.72,46093,10.06,73778.0,-8.73,-11.63,-11.81,0,*58
1486771566.01,46094,10.06,73774.8,-8.73,-11.63,-11.89,0,*57
1486771567.3,46095,10.06,73776.0,-8.73,-11.63,-11.89,0,*56
1486771568.59,46096,10.06,73778.8,-8.73,-11.63,-11.77,0,*54
1486771569.88,46097,10.06,73774.0,-8.73,-11.63,-11.89,0,*54
1486771571.16,46098,10.06,73776.0,-8.73,-11.51,-11.77,0,*5B
1486771572.45,46099,10.06,73774.8,-8.73,-11.55,-11.77,0,*5E
1486771573.74,46100,10.06,73776.3,-8.73,-11.63,-11.85,0,*57
1486771575.02,46101,10.06,73776.5,-8.73,-11.63,-11.81,0,*52
1486771576.29,46102,10.06,73774.8,-8.71,-11.59,-11.85,0,*5E
1486771577.58,46103,10.06,73776.0,-8.73,-11.67,-11.89,0,*5C
1486771578.83,46104,10.06,73776.0,-8.71,-11.51,-11.77,0,*5D
1486771580.09,46105,10.06,73782.5,-8.71,-11.51,-11.77,0,*5C
1486771581.38,46106,10.06,73772.8,-8.73,-11.37,-11.67,0,*5C
1486771582.66,46107,10.06,73778.0,-8.73,-11.37,-11.55,0,*5C
1486771583.93,46108,10.06,73780.5,-8.73,-11.33,-11.41,0,*52
1486771585.19,46109,10.06,73782.8,-8.73,-11.33,-11.41,0,*53
1486771586.48,46110,10.06,73782.3,-8.73,-11.37,-11.55,0,*5A
1486771587.72,46111,10.06,73772.5,-8.71,-11.37,-11.45,0,*58
1486771588.98,46112,10.06,73774.8,-8.73,-11.41,-11.67,0,*58
1486771590.25,46113,10.06,73776.3,-8.73,-11.41,-11.67,0,*59
1486771591.54,46114,10.06,73776.8,-8.73,-11.33,-11.55,0,*5A
1486771592.82,46115,10.06,73780.0,-8.73,-11.37,-11.51,0,*5B
1486771594.08,46116,10.06,73778.3,-8.71,-11.33,-11.37,0,*5E
1486771595.35,46117,10.06,73774.5,-8.73,-11.41,-11.63,0,*59
1486771596.63,46118,10.06,73778.5,-8.73,-11.41,-11.63,0,*56
1486771597.88,46119,10.06,73774.8,-8.71,-11.37,-11.51,0,*55
1486771599.17,46120,10.06,73774.3,-8.73,-11.37,-11.55,0,*59
1486771600.45,46121,10.06,73774.8,-8.73,-11.37,-11.51,0,*5C
1486771601.75,46122,10.06,73774.8,-8.73,-11.33,-11.63,0,*5A
1486771603.0,46123,10.06,73780.8,-8.75,-11.37,-11.51,0,*58
1486771604.25,46124,10.06,73778.8,-8.71,-11.45,-11.59,0,*56
1486771605.49,46125,10.06,73780.5,-8.71,-11.41,-11.63,0,*5A
1486771606.76,46126,10.06,73780.0,-8.73,-11.41,-11.63,0,*5B
1486771608.02,46127,10.06,73778.0,-8.71,-11.29,-11.37,0,*57
1486771609.28,46128,10.06,73774.5,-8.75,-11.33,-11.51,0,*57
1486771610.57,46129,10.06,73780.0,-8.73,-11.37,-11.51,0,*54
1486771611.81,46130,10.06,73780.8,-8.71,-11.29,-11.45,0,*54
1486771613.07,46131,10.06,73782.5,-8.71,-11.29,-11.37,0,*50
1486771614.34,46132,10.06,73776.8,-8.73,-11.33,-11.41,0,*5B
1486771615.62,46133,10.06,73778.5,-8.73,-11.33,-11.51,0,*5B
1486771616.89,46134,10.06,73776.8,-8.73,-11.37,-11.41,0,*59
1486771618.15,46135,10.06,73778.0,-8.71,-11.33,-11.37,0,*5F
1486771619.41,46136,10.06,73782.8,-8.71,-11.29,-11.37,0,*57
1486771620.67,46137,10.06,73776.5,-8.71,-11.29,-11.33,0,*52
1486771621.9,46138,10.06,73776.8,-8.71,-11.19,-11.33,0,*5E
1486771623.14,46139,10.06,73780.3,-8.73,-11.23,-11.41,0,*51
1486771624.37,46140,10.06,73778.3,-8.71,-11.19,-11.37,0,*55
1486771625.61,46141,10.06,73778.3,-8.73,-11.23,-11.41,0,*5E
1486771626.87,46142,10.06,73780.0,-8.71,-11.29,-11.37,0,*54
1486771628.13,46143,10.06,73782.0,-8.71,-11.29,-11.33,0,*51
1486771629.36,46144,10.06,73778.3,-8.71,-11.19,-11.33,0,*55
1486771630.62,46145,10.06,73778.8,-8.73,-11.23,-11.37,0,*5B
1486771631.88,46146,10.06,73774.5,-8.73,-11.23,-11.37,0,*58
1486771633.12,46147,10.06,73778.0,-8.73,-11.23,-11.41,0,*58
1486771634.39,46148,10.06,73780.8,-8.71,-11.29,-11.37,0,*5E
1486771635.64,46149,10.06,73776.0,-8.73,-11.23,-11.33,0,*53
1486771636.93,46150,10.06,73778.5,-8.73,-11.33,-11.37,0,*5E
1486771638.19,46151,10.06,73776.5,-8.73,-11.23,-11.37,0,*5E
1486771639.42,46152,10.06,73776.8,-8.71,-11.19,-11.33,0,*52
1486771640.68,46153,10.06,73776.0,-8.73,-11.33,-11.41,0,*5C
1486771641.93,46154,10.06,73778.8,-8.73,-11.23,-11.41,0,*5A
1486771643.15,46155,10.06,73778.3,-8.71,-11.19,-11.33,0,*55
1486771644.44,46156,10.06,73774.3,-8.73,-11.33,-11.51,0,*58
1486771645.7,46157,10.06,73778.5,-8.71,-11.29,-11.33,0,*54
1486771646.96,46158,10.06,73776.3,-8.73,-11.23,-11.37,0,*57
1486771648.22,46159,10.06,73778.0,-8.73,-11.37,-11.41,0,*52
1486771649.49,46160,10.06,73782.0,-8.73,-11.33,-11.41,0,*5C
1486771650.75,46161,10.06,73780.5,-8.73,-11.33,-11.41,0,*5D
1486771652.04,46162,10.06,73784.8,-8.73,-11.33,-11.51,0,*5F
1486771653.31,46163,10.06,73780.5,-8.73,-11.41,-11.63,0,*5A
1486771654.6,46164,10.06,73780.5,-8.73,-11.51,-11.63,0,*5C
1486771655.89,46165,10.06,73780.0,-8.73,-11.37,-11.55,0,*58
1486771657.18,46166,10.06,73778.0,-8.73,-11.37,-11.55,0,*5B
1486771658.46,46167,10.06,73780.8,-8.73,-11.37,-11.51,0,*5E
1486771659.75,46168,10.06,73780.0,-8.73,-11.33,-11.51,0,*55
1486771661.01,46169,10.06,73778.5,-8.73,-11.37,-11.41,0,*51
1486771662.28,46170,10.06,73778.8,-8.73,-11.33,-11.41,0,*5D
1486771663.53,46171,10.06,73782.0,-8.71,-11.33,-11.37,0,*5F
1486771664.82,46172,10.06,73780.3,-8.73,-11.37,-11.51,0,*5A
1486771666.11,46173,10.06,73780.0,-8.73,-11.33,-11.55,0,*5B
1486771667.37,46174,10.06,73778.5,-8.73,-11.33,-11.45,0,*5D
1486771668.64,46175,10.06,73778.0,-8.73,-11.41,-11.55,0,*58
1486771669.93,46176,10.06,73776.8,-8.73,-11.37,-11.55,0,*5A
1486771671.19,46177,10.06,73776.3,-8.73,-11.37,-11.41,0,*5E
1486771672.45,46178,10.06,73778.3,-8.73,-11.33,-11.41,0,*55
1486771673.74,46179,10.06,73782.3,-8.73,-11.33,-11.37,0,*55
1486771675.01,46180,10.06,73780.3,-8.73,-11.33,-11.41,0,*52
1486771676.27,46181,10.06,73776.8,-8.73,-11.37,-11.41,0,*57
1486771677.55,46182,10.06,73778.0,-8.73,-11.37,-11.51,0,*55
1486771678.84,46183,10.06,73782.5,-8.73,-11.37,-11.51,0,*54
1486771680.12,46184,10.06,73778.0,-8.73,-11.37,-11.55,0,*57
1486771681.36,46185,10.06,73778.0,-8.75,-11.33,-11.41,0,*51
1486771682.65,46186,10.06,73776.8,-8.73,-11.33,-11.51,0,*55
1486771683.92,46187,10.06,73778.5,-8.73,-11.33,-11.41,0,*55
1486771685.2,46188,10.06,73780.0,-8.73,-11.33,-11.51,0,*5B
1486771686.47,46189,10.06,73778.3,-8.73,-11.41,-11.55,0,*5B
1486771687.74,46190,10.0,73774.5,-8.73,-11.41,-11.63,0,*56
1486771689.01,46191,10.06,73776.3,-8.73,-11.41,-11.55,0,*52
1486771690.29,46192,10.06,73776.8,-8.73,-11.37,-11.55,0,*50
1486771691.58,46193,10.06,73776.3,-8.73,-11.37,-11.55,0,*51
1486771692.85,46194,10.06,73778.0,-8.73,-11.41,-11.63,0,*52
1486771694.12,46195,10.06,73776.8,-8.73,-11.41,-11.51,0,*52
1486771695.41,46196,10.06,73776.8,-8.73,-11.33,-11.55,0,*50
1486771696.69,46197,10.06,73774.8,-8.73,-11.37,-11.51,0,*51
1486771697.95,46198,10.06,73776.8,-8.73,-11.37,-11.41,0,*5F
1486771699.24,46199,10.06,73772.8,-8.73,-11.51,-11.63,0,*5E
1486771700.51,46200,10.06,73776.8,-8.73,-11.41,-11.63,0,*5C
1486771701.78,46201,10.06,73776.3,-8.73,-11.41,-11.55,0,*58